BEIDOU-3 M3 (C21)

Last updated on Tue Nov 19 2024 00:03:15 GMT+0000 (Coordinated Universal Time)

1 43208U 18018B 24322.57871716 -.00000032 00000+0 00000+0 0 9994 2 43208 56.1493 82.2463 0005454 314.9035 45.0230 1.86231123 46006
UTC large
Height (km)
Speed (km/s)
/
Latitude / Longitude
Inclination (degrees)
Orbital Period (minutes)
Azimuth
Elevation
Range (km)
Doppler Factor

Next 0 passes for location: London (51.5072 / 0.1276)

Sorry there are no passes over London.